WXM80 ListenWXM80 Stop

You find our weather info also at:

UK Metoffice

WeatherCloud

Weather Underground

Northeastern Weather Network

AWEKAS

Citizen Weather Observer Program (CWOP)

HAMweather, WeatherForYou, PWS Weather


Weather Underground History page Text

Daily Summary for May 20, 2016 Units:  English    Metric   Both
« Previous Day
Next Day »
Daily Weekly Monthly Yearly Custom
  High: Low: Average:
Temperature: 80.8 °F 46.7 °F 62.6 °F
Dew Point: 52.4 °F 43.9 °F 47.5 °F
Humidity: 96 % 30 % 63 %
Wind Speed: 6.0 mph 0.0 mph 1.1 mph
Wind Gust: 11.5 mph - -
Wind:- - SSW
Pressure: 30.24 in 30.11 in -
Precipitation: 0.00 in    
Historical Graphs
 
 
Tabular Data for May 20, 2016
Time Temperature Dew Point Pressure Wind Wind Speed Wind Gust Humidity Rainfall Rate (Hourly)
00:02 51.8 °F 45.5 °F 30.12 in Calm     79 % 0.00 in
00:07 51.5 °F 45.5 °F 30.12 in Calm     80 % 0.00 in
00:12 51.3 °F 45.3 °F 30.12 in Calm     80 % 0.00 in
00:17 51.1 °F 45.5 °F 30.12 in Calm     81 % 0.00 in
00:22 50.9 °F 45.3 °F 30.12 in Calm     81 % 0.00 in
00:27 50.8 °F 45.5 °F 30.12 in SW 0.4 mph 1.2 mph 82 % 0.00 in
00:32 50.6 °F 45.3 °F 30.12 in SW 0.4 mph 1.2 mph 82 % 0.00 in
00:37 50.4 °F 45.4 °F 30.12 in Calm     83 % 0.00 in
00:43 50.3 °F 45.3 °F 30.12 in SW 0.4 mph   83 % 0.00 in
00:48 50.2 °F 45.2 °F 30.12 in Calm     83 % 0.00 in
00:53 50.1 °F 45.1 °F 30.12 in Calm     83 % 0.00 in
01:03 49.9 °F 45.3 °F 30.12 in Calm     84 % 0.00 in
01:08 49.7 °F 45.1 °F 30.12 in Calm     84 % 0.00 in
01:13 49.6 °F 45.0 °F 30.12 in Calm     84 % 0.00 in
01:18 49.5 °F 45.2 °F 30.12 in Calm     85 % 0.00 in
01:23 49.4 °F 45.1 °F 30.12 in Calm     85 % 0.00 in
01:28 49.3 °F 45.0 °F 30.12 in Calm     85 % 0.00 in
01:34 49.2 °F 45.2 °F 30.12 in SW 0.7 mph 3.5 mph 86 % 0.00 in
01:39 49.1 °F 45.1 °F 30.11 in Calm   1.0 mph 86 % 0.00 in
01:44 49.0 °F 45.0 °F 30.11 in Calm     86 % 0.00 in
01:49 48.9 °F 44.9 °F 30.12 in Calm     86 % 0.00 in
01:54 48.8 °F 44.8 °F 30.12 in SW 0.6 mph 1.2 mph 86 % 0.00 in
01:59 48.7 °F 45.0 °F 30.12 in SW 0.2 mph 1.2 mph 87 % 0.00 in
02:04 48.6 °F 44.9 °F 30.11 in Calm     87 % 0.00 in
02:09 48.5 °F 44.8 °F 30.11 in Calm     87 % 0.00 in
02:14 48.4 °F 44.7 °F 30.11 in SW 0.3 mph 1.2 mph 87 % 0.00 in
02:19 48.3 °F 44.9 °F 30.12 in Calm     88 % 0.00 in
02:25 48.2 °F 44.8 °F 30.11 in SW 0.1 mph 1.2 mph 88 % 0.00 in
02:30 48.1 °F 44.7 °F 30.11 in Calm     88 % 0.00 in
02:35 48.0 °F 44.6 °F 30.11 in Calm     88 % 0.00 in
02:40 47.9 °F 44.5 °F 30.11 in SW 0.8 mph 2.3 mph 88 % 0.00 in
02:45 47.8 °F 44.7 °F 30.12 in Calm     89 % 0.00 in
02:50 47.8 °F 44.7 °F 30.12 in Calm     89 % 0.00 in
02:55 47.7 °F 44.6 °F 30.12 in Calm     89 % 0.00 in
03:00 47.6 °F 44.5 °F 30.12 in Calm     89 % 0.00 in
03:10 47.4 °F 44.3 °F 30.12 in Calm     89 % 0.00 in
03:16 47.3 °F 44.2 °F 30.12 in Calm     89 % 0.00 in
03:26 47.1 °F 44.0 °F 30.12 in Calm     89 % 0.00 in
03:31 47.0 °F 43.9 °F 30.12 in Calm   1.2 mph 89 % 0.00 in
03:36 46.9 °F 44.1 °F 30.12 in Calm   1.2 mph 90 % 0.00 in
03:41 46.9 °F 44.1 °F 30.12 in Calm     90 % 0.00 in
03:46 46.8 °F 44.0 °F 30.13 in SW 0.3 mph 1.2 mph 90 % 0.00 in
03:51 46.8 °F 44.0 °F 30.13 in Calm   1.2 mph 90 % 0.00 in
03:56 46.7 °F 44.2 °F 30.13 in Calm     91 % 0.00 in
04:01 46.8 °F 44.6 °F 30.13 in Calm     92 % 0.00 in
04:07 47.0 °F 45.1 °F 30.14 in Calm     93 % 0.00 in
04:17 47.4 °F 45.8 °F 30.14 in Calm     94 % 0.00 in
04:22 47.6 °F 46.0 °F 30.14 in SW 0.3 mph 1.2 mph 94 % 0.00 in
04:27 47.8 °F 46.2 °F 30.14 in SW 0.1 mph 1.0 mph 94 % 0.00 in
04:32 47.9 °F 46.3 °F 30.15 in SW 0.1 mph 1.2 mph 94 % 0.00 in
04:37 48.1 °F 46.7 °F 30.15 in Calm     95 % 0.00 in
04:42 48.3 °F 46.9 °F 30.15 in Calm     95 % 0.00 in
04:47 48.5 °F 47.1 °F 30.15 in Calm     95 % 0.00 in
04:52 48.6 °F 47.2 °F 30.16 in SW 0.2 mph 1.2 mph 95 % 0.00 in
04:58 48.6 °F 47.2 °F 30.16 in Calm   1.2 mph 95 % 0.00 in
05:03 48.5 °F 46.9 °F 30.16 in Calm   1.2 mph 94 % 0.00 in
05:08 48.4 °F 46.8 °F 30.16 in Calm     94 % 0.00 in
05:13 48.3 °F 46.7 °F 30.16 in Calm     94 % 0.00 in
05:18 48.1 °F 46.2 °F 30.17 in Calm     93 % 0.00 in
05:23 47.9 °F 46.0 °F 30.17 in Calm     93 % 0.00 in
05:28 47.8 °F 45.9 °F 30.17 in Calm     93 % 0.00 in
05:33 47.7 °F 45.8 °F 30.17 in Calm     93 % 0.00 in
05:38 47.6 °F 45.7 °F 30.17 in Calm     93 % 0.00 in
05:43 47.4 °F 45.2 °F 30.18 in Calm     92 % 0.00 in
05:49 47.3 °F 45.4 °F 30.18 in Calm     93 % 0.00 in
05:54 47.2 °F 45.3 °F 30.18 in Calm     93 % 0.00 in
05:59 47.2 °F 45.3 °F 30.18 in Calm     93 % 0.00 in
06:04 47.2 °F 45.3 °F 30.18 in Calm     93 % 0.00 in
06:09 47.2 °F 45.3 °F 30.18 in Calm     93 % 0.00 in
06:14 47.3 °F 45.4 °F 30.18 in Calm     93 % 0.00 in
06:19 47.5 °F 45.9 °F 30.18 in Calm     94 % 0.00 in
06:24 47.7 °F 46.1 °F 30.18 in Calm     94 % 0.00 in
06:29 47.8 °F 46.2 °F 30.18 in Calm     94 % 0.00 in
06:34 48.1 °F 46.7 °F 30.18 in Calm     95 % 0.00 in
06:40 48.3 °F 46.9 °F 30.19 in Calm     95 % 0.00 in
06:45 48.7 °F 47.3 °F 30.19 in Calm     95 % 0.00 in
06:50 49.0 °F 47.6 °F 30.19 in Calm     95 % 0.00 in
06:55 49.3 °F 48.2 °F 30.18 in Calm     96 % 0.00 in
07:00 49.5 °F 48.4 °F 30.19 in Calm     96 % 0.00 in
07:05 49.9 °F 48.8 °F 30.19 in Calm     96 % 0.00 in
07:10 50.5 °F 49.4 °F 30.19 in Calm     96 % 0.00 in
07:15 50.8 °F 49.7 °F 30.19 in Calm     96 % 0.00 in
07:20 51.1 °F 50.0 °F 30.19 in Calm     96 % 0.00 in
07:25 51.5 °F 50.4 °F 30.20 in Calm     96 % 0.00 in
07:31 51.9 °F 50.8 °F 30.19 in Calm     96 % 0.00 in
07:36 52.4 °F 51.3 °F 30.20 in SW 0.3 mph 1.2 mph 96 % 0.00 in
07:41 52.7 °F 51.6 °F 30.20 in Calm   1.2 mph 96 % 0.00 in
07:46 53.3 °F 52.2 °F 30.20 in WNW 0.5 mph 2.3 mph 96 % 0.00 in
07:51 53.6 °F 52.2 °F 30.21 in Calm   1.2 mph 95 % 0.00 in
07:56 53.8 °F 51.8 °F 30.21 in WNW 0.3 mph 2.3 mph 93 % 0.00 in
08:01 54.1 °F 51.2 °F 30.21 in Calm   1.2 mph 90 % 0.00 in
08:06 54.6 °F 50.8 °F 30.21 in WNW 1.5 mph 2.3 mph 87 % 0.00 in
08:11 55.1 °F 50.7 °F 30.21 in Calm     85 % 0.00 in
08:16 55.6 °F 50.5 °F 30.22 in WNW 2.6 mph 3.5 mph 83 % 0.00 in
08:22 56.0 °F 49.6 °F 30.22 in WNW 1.8 mph 3.5 mph 79 % 0.00 in
08:27 56.5 °F 49.7 °F 30.22 in WNW 1.7 mph 3.5 mph 78 % 0.00 in
08:32 57.1 °F 50.3 °F 30.22 in WNW 0.2 mph 1.2 mph 78 % 0.00 in
08:37 57.7 °F 49.8 °F 30.23 in Calm     75 % 0.00 in
08:42 58.0 °F 49.4 °F 30.23 in WNW 0.9 mph 2.3 mph 73 % 0.00 in
08:47 58.4 °F 49.0 °F 30.23 in WSW 0.4 mph 2.3 mph 71 % 0.00 in
08:52 58.8 °F 49.0 °F 30.23 in NW 1.2 mph 3.5 mph 70 % 0.00 in
08:57 59.4 °F 48.8 °F 30.23 in WNW 2.3 mph 3.5 mph 68 % 0.00 in
09:02 59.8 °F 48.8 °F 30.23 in NW 0.4 mph 3.5 mph 67 % 0.00 in
09:08 60.3 °F 49.7 °F 30.23 in WSW 1.9 mph 4.6 mph 68 % 0.00 in
09:13 60.7 °F 50.5 °F 30.24 in WSW 1.1 mph 4.6 mph 69 % 0.00 in
09:18 61.1 °F 50.1 °F 30.24 in WNW 3.0 mph 5.8 mph 67 % 0.00 in
09:23 61.5 °F 49.6 °F 30.24 in WNW 1.5 mph 3.5 mph 65 % 0.00 in
09:28 61.8 °F 49.5 °F 30.24 in West 2.8 mph 4.6 mph 64 % 0.00 in
09:33 62.2 °F 49.4 °F 30.23 in WSW 2.6 mph 4.0 mph 63 % 0.00 in
09:38 62.7 °F 49.9 °F 30.24 in SW 3.5 mph 4.6 mph 63 % 0.00 in
09:43 63.1 °F 49.9 °F 30.24 in SW 3.1 mph 5.0 mph 62 % 0.00 in
09:48 63.7 °F 50.0 °F 30.24 in WSW 3.6 mph 6.9 mph 61 % 0.00 in
09:53 64.3 °F 51.0 °F 30.24 in SW 1.9 mph 2.0 mph 62 % 0.00 in
09:59 65.2 °F 51.4 °F 30.24 in NNW 0.2 mph 2.3 mph 61 % 0.00 in
10:04 65.8 °F 50.6 °F 30.24 in NW 2.4 mph 5.0 mph 58 % 0.00 in
10:09 66.4 °F 52.1 °F 30.23 in WNW 1.1 mph 3.5 mph 60 % 0.00 in
10:14 67.0 °F 50.8 °F 30.23 in WNW 3.2 mph 4.6 mph 56 % 0.00 in
10:19 67.7 °F 50.9 °F 30.23 in NW 2.4 mph 4.0 mph 55 % 0.00 in
10:24 68.2 °F 49.9 °F 30.23 in North 2.9 mph 4.0 mph 52 % 0.00 in
10:34 69.0 °F 50.1 °F 30.24 in WNW 1.7 mph 4.6 mph 51 % 0.00 in
10:39 69.4 °F 52.0 °F 30.24 in WSW 1.9 mph 3.5 mph 54 % 0.00 in
10:44 69.7 °F 49.7 °F 30.23 in NNW 1.5 mph 3.5 mph 49 % 0.00 in
10:50 70.1 °F 49.5 °F 30.23 in WNW 1.2 mph 3.5 mph 48 % 0.00 in
10:55 70.6 °F 50.5 °F 30.23 in WNW 1.9 mph 4.0 mph 49 % 0.00 in
11:00 71.1 °F 50.4 °F 30.24 in WNW 1.4 mph 3.5 mph 48 % 0.00 in
11:05 71.7 °F 52.1 °F 30.24 in NE 0.9 mph 4.0 mph 50 % 0.00 in
11:10 72.3 °F 49.8 °F 30.23 in NNW 1.6 mph 3.5 mph 45 % 0.00 in
11:15 72.9 °F 52.1 °F 30.23 in NW 0.5 mph 2.3 mph 48 % 0.00 in
11:20 73.4 °F 51.9 °F 30.23 in NNE 1.8 mph 3.5 mph 47 % 0.00 in
11:25 73.9 °F 51.2 °F 30.23 in NNE 1.1 mph 2.3 mph 45 % 0.00 in
11:30 74.2 °F 49.6 °F 30.23 in NNE 1.6 mph 5.8 mph 42 % 0.00 in
11:35 74.6 °F 52.4 °F 30.23 in WNW 2.7 mph 4.0 mph 46 % 0.00 in
11:41 74.9 °F 50.3 °F 30.22 in North 2.8 mph 5.8 mph 42 % 0.00 in
11:46 75.4 °F 50.7 °F 30.22 in North 2.6 mph 5.8 mph 42 % 0.00 in
11:51 75.8 °F 50.4 °F 30.22 in NNE 1.9 mph 3.5 mph 41 % 0.00 in
11:56 76.4 °F 50.3 °F 30.22 in NNE 1.8 mph 3.5 mph 40 % 0.00 in
12:01 76.3 °F 48.1 °F 30.22 in ENE 3.7 mph 4.6 mph 37 % 0.00 in
12:06 75.5 °F 50.8 °F 30.22 in North 3.4 mph 6.0 mph 42 % 0.00 in
12:11 75.2 °F 47.1 °F 30.21 in ENE 3.6 mph 4.6 mph 37 % 0.00 in
12:16 73.8 °F 47.3 °F 30.21 in NNE 2.3 mph 4.6 mph 39 % 0.00 in
12:21 73.7 °F 51.6 °F 30.21 in NNW 2.4 mph 5.0 mph 46 % 0.00 in
12:26 74.4 °F 49.8 °F 30.21 in ENE 1.7 mph 3.5 mph 42 % 0.00 in
12:31 74.9 °F 48.3 °F 30.21 in ENE 2.6 mph 4.0 mph 39 % 0.00 in
12:37 74.7 °F 48.1 °F 30.20 in ENE 1.3 mph 3.5 mph 39 % 0.00 in
12:42 74.0 °F 46.8 °F 30.20 in ENE 1.0 mph 3.5 mph 38 % 0.00 in
12:47 73.7 °F 47.2 °F 30.21 in ENE 0.8 mph 3.5 mph 39 % 0.00 in
12:57 73.5 °F 48.4 °F 30.20 in NE 1.1 mph 3.5 mph 41 % 0.00 in
13:02 74.0 °F 47.5 °F 30.21 in ENE 1.6 mph 3.5 mph 39 % 0.00 in
13:07 74.8 °F 48.2 °F 30.21 in NNE 2.2 mph 4.0 mph 39 % 0.00 in
13:12 75.5 °F 46.7 °F 30.20 in NNE 1.1 mph 3.5 mph 36 % 0.00 in
13:17 76.5 °F 51.0 °F 30.20 in ENE 1.4 mph 4.0 mph 41 % 0.00 in
13:22 77.2 °F 47.4 °F 30.20 in ENE 1.9 mph 4.6 mph 35 % 0.00 in
13:28 76.7 °F 45.4 °F 30.20 in ENE 0.3 mph 2.3 mph 33 % 0.00 in
13:33 76.8 °F 47.8 °F 30.20 in WNW 3.6 mph 4.6 mph 36 % 0.00 in
13:38 77.6 °F 49.3 °F 30.20 in WNW 3.6 mph 5.0 mph 37 % 0.00 in
13:43 78.0 °F 46.6 °F 30.20 in North 1.6 mph 5.0 mph 33 % 0.00 in
13:48 78.2 °F 49.1 °F 30.19 in North 1.3 mph 3.5 mph 36 % 0.00 in
13:53 78.2 °F 45.9 °F 30.19 in North 2.1 mph 3.5 mph 32 % 0.00 in
13:58 78.4 °F 46.9 °F 30.19 in NE 2.1 mph 3.5 mph 33 % 0.00 in
14:03 78.2 °F 49.1 °F 30.19 in WSW 1.8 mph 3.0 mph 36 % 0.00 in
14:08 78.5 °F 47.8 °F 30.19 in NW 2.1 mph 4.6 mph 34 % 0.00 in
14:13 78.9 °F 47.3 °F 30.19 in Calm     33 % 0.00 in
14:19 79.2 °F 47.6 °F 30.19 in NNE 0.9 mph 2.3 mph 33 % 0.00 in
14:24 79.5 °F 49.4 °F 30.19 in NNE 0.4 mph 3.5 mph 35 % 0.00 in
14:34 80.3 °F 50.1 °F 30.18 in SSW 1.6 mph 4.6 mph 35 % 0.00 in
14:39 80.3 °F 49.4 °F 30.18 in SW 3.3 mph 5.8 mph 34 % 0.00 in
14:44 80.4 °F 50.2 °F 30.18 in West 1.8 mph 4.6 mph 35 % 0.00 in
14:49 80.7 °F 49.7 °F 30.18 in SW 0.4 mph 2.3 mph 34 % 0.00 in
14:54 80.8 °F 48.2 °F 30.18 in SSW 3.6 mph 6.9 mph 32 % 0.00 in
15:04 80.7 °F 49.7 °F 30.18 in WSW 4.1 mph 8.0 mph 34 % 0.00 in
15:10 80.6 °F 48.8 °F 30.18 in East 1.5 mph 3.5 mph 33 % 0.00 in
15:15 80.3 °F 46.9 °F 30.18 in SW 6.0 mph 6.9 mph 31 % 0.00 in
15:20 80.0 °F 46.6 °F 30.18 in SW 3.1 mph 6.0 mph 31 % 0.00 in
15:25 79.9 °F 47.4 °F 30.18 in West 2.2 mph 6.9 mph 32 % 0.00 in
15:30 79.8 °F 48.9 °F 30.18 in SW 2.2 mph 3.5 mph 34 % 0.00 in
15:35 79.9 °F 47.4 °F 30.18 in NW 2.4 mph 4.6 mph 32 % 0.00 in
15:40 80.1 °F 47.6 °F 30.17 in West 2.6 mph 3.5 mph 32 % 0.00 in
15:45 80.3 °F 47.7 °F 30.17 in SSW 2.1 mph 3.5 mph 32 % 0.00 in
15:50 80.5 °F 47.9 °F 30.18 in WSW 2.5 mph 3.5 mph 32 % 0.00 in
15:55 80.6 °F 47.2 °F 30.17 in SSW 0.3 mph 3.5 mph 31 % 0.00 in
16:01 80.6 °F 48.0 °F 30.17 in NE 1.4 mph 3.5 mph 32 % 0.00 in
16:06 80.5 °F 46.2 °F 30.17 in WSW 1.4 mph 4.0 mph 30 % 0.00 in
16:11 80.6 °F 48.0 °F 30.16 in West 0.7 mph 5.8 mph 32 % 0.00 in
16:16 80.5 °F 47.1 °F 30.17 in SSW 3.9 mph 5.8 mph 31 % 0.00 in
16:21 80.4 °F 47.0 °F 30.16 in WSW 1.0 mph 4.0 mph 31 % 0.00 in
16:26 80.4 °F 48.7 °F 30.16 in WNW 1.3 mph 3.5 mph 33 % 0.00 in
16:31 80.3 °F 47.7 °F 30.16 in SW 1.6 mph 2.3 mph 32 % 0.00 in
16:36 80.2 °F 47.7 °F 30.17 in SE 0.5 mph 3.0 mph 32 % 0.00 in
16:41 79.9 °F 45.7 °F 30.17 in SE 0.4 mph 3.5 mph 30 % 0.00 in
16:46 79.7 °F 46.4 °F 30.17 in SW 2.2 mph 5.8 mph 31 % 0.00 in
16:52 79.4 °F 47.0 °F 30.17 in WNW 2.0 mph 4.0 mph 32 % 0.00 in
16:57 79.1 °F 45.9 °F 30.16 in WSW 2.7 mph 3.5 mph 31 % 0.00 in
17:02 78.8 °F 47.3 °F 30.16 in WSW 0.6 mph 2.3 mph 33 % 0.00 in
17:07 78.5 °F 47.8 °F 30.16 in SW 0.4 mph 1.2 mph 34 % 0.00 in
17:12 78.3 °F 47.6 °F 30.16 in SSW 1.1 mph 3.5 mph 34 % 0.00 in
17:17 77.9 °F 48.8 °F 30.16 in SW 3.3 mph 8.0 mph 36 % 0.00 in
17:22 77.2 °F 47.4 °F 30.16 in SW 0.7 mph 2.3 mph 35 % 0.00 in
17:27 76.7 °F 47.0 °F 30.16 in SW 0.2 mph 1.2 mph 35 % 0.00 in
17:32 76.1 °F 47.2 °F 30.16 in SSE 0.6 mph 2.0 mph 36 % 0.00 in
17:37 75.6 °F 47.5 °F 30.16 in South 0.3 mph 3.5 mph 37 % 0.00 in
17:43 75.2 °F 47.8 °F 30.16 in SSE 0.3 mph 2.3 mph 38 % 0.00 in
17:53 74.2 °F 47.6 °F 30.15 in South 2.1 mph 7.0 mph 39 % 0.00 in
17:58 74.0 °F 47.5 °F 30.15 in SSE 1.6 mph 3.5 mph 39 % 0.00 in
18:03 73.7 °F 47.2 °F 30.15 in South 1.0 mph 2.3 mph 39 % 0.00 in
18:08 73.3 °F 46.8 °F 30.16 in SSW 2.6 mph 3.5 mph 39 % 0.00 in
18:13 72.9 °F 47.2 °F 30.16 in SSW 1.5 mph 4.0 mph 40 % 0.00 in
18:18 72.7 °F 47.6 °F 30.16 in South 1.7 mph 5.0 mph 41 % 0.00 in
18:23 72.5 °F 46.8 °F 30.16 in SE 2.0 mph 4.6 mph 40 % 0.00 in
18:28 72.2 °F 47.2 °F 30.16 in SSE 2.1 mph 3.5 mph 41 % 0.00 in
18:34 71.9 °F 46.9 °F 30.16 in SSW 1.2 mph 3.5 mph 41 % 0.00 in
18:39 71.6 °F 46.0 °F 30.15 in SSW 2.3 mph 3.5 mph 40 % 0.00 in
18:44 71.3 °F 46.4 °F 30.15 in South 0.8 mph 3.0 mph 41 % 0.00 in
18:49 71.1 °F 46.2 °F 30.15 in WSW 1.3 mph 3.5 mph 41 % 0.00 in
18:54 70.9 °F 46.7 °F 30.15 in SSE 1.8 mph 5.8 mph 42 % 0.00 in
19:04 70.0 °F 46.5 °F 30.15 in South 1.2 mph 3.5 mph 43 % 0.00 in
19:14 69.4 °F 47.1 °F 30.15 in SSE 2.3 mph 3.5 mph 45 % 0.00 in
19:19 69.3 °F 46.4 °F 30.15 in South 1.3 mph 4.6 mph 44 % 0.00 in
19:25 69.0 °F 46.2 °F 30.16 in South 2.1 mph 4.6 mph 44 % 0.00 in
19:30 68.7 °F 45.9 °F 30.16 in SE 0.8 mph 4.0 mph 44 % 0.00 in
19:35 68.3 °F 45.5 °F 30.16 in SSE 1.9 mph 6.9 mph 44 % 0.00 in
19:40 68.0 °F 45.9 °F 30.16 in SSW 1.3 mph 3.5 mph 45 % 0.00 in
19:45 67.8 °F 45.7 °F 30.16 in SSW 0.1 mph 1.2 mph 45 % 0.00 in
19:50 67.5 °F 46.0 °F 30.16 in SSE 0.8 mph 2.3 mph 46 % 0.00 in
19:55 67.2 °F 46.3 °F 30.16 in SSE 0.1 mph 3.5 mph 47 % 0.00 in
20:05 66.3 °F 46.6 °F 30.16 in SSW 1.8 mph 4.6 mph 49 % 0.00 in
20:10 65.9 °F 46.7 °F 30.16 in South 1.9 mph 3.5 mph 50 % 0.00 in
20:16 65.6 °F 46.5 °F 30.16 in ESE 1.7 mph 3.5 mph 50 % 0.00 in
20:21 65.1 °F 47.0 °F 30.16 in SSW 2.1 mph 3.5 mph 52 % 0.00 in
20:26 64.8 °F 47.3 °F 30.16 in South 2.7 mph 5.8 mph 53 % 0.00 in
20:31 64.5 °F 47.5 °F 30.16 in SSE 0.9 mph 2.3 mph 54 % 0.00 in
20:36 64.1 °F 47.6 °F 30.16 in SSW 1.1 mph 4.0 mph 55 % 0.00 in
20:41 63.8 °F 48.3 °F 30.16 in SSE 1.6 mph 3.5 mph 57 % 0.00 in
20:46 63.4 °F 48.4 °F 30.16 in SW 2.0 mph 4.6 mph 58 % 0.00 in
20:51 63.1 °F 48.5 °F 30.16 in South 1.6 mph 3.5 mph 59 % 0.00 in
20:56 62.8 °F 48.7 °F 30.16 in SSW 1.7 mph 3.5 mph 60 % 0.00 in
21:01 62.5 °F 48.9 °F 30.16 in SSW 1.8 mph 8.1 mph 61 % 0.00 in
21:07 62.2 °F 48.1 °F 30.16 in SW 1.6 mph 4.6 mph 60 % 0.00 in
21:12 61.8 °F 47.8 °F 30.17 in South 1.2 mph 4.6 mph 60 % 0.00 in
21:17 61.5 °F 47.9 °F 30.17 in SSE 1.9 mph 3.5 mph 61 % 0.00 in
21:22 61.3 °F 47.7 °F 30.17 in SSW 0.8 mph 2.0 mph 61 % 0.00 in
21:27 61.1 °F 48.0 °F 30.17 in SSW 1.3 mph 3.5 mph 62 % 0.00 in
21:32 60.9 °F 47.8 °F 30.17 in SSE 1.9 mph 3.5 mph 62 % 0.00 in
21:37 60.7 °F 48.0 °F 30.17 in SSE 2.3 mph 3.5 mph 63 % 0.00 in
21:42 60.5 °F 47.8 °F 30.18 in SSW 1.9 mph 4.0 mph 63 % 0.00 in
21:47 60.3 °F 47.2 °F 30.17 in SSE 1.7 mph 11.5 mph 62 % 0.00 in
21:52 60.2 °F 47.1 °F 30.18 in SSW 1.3 mph 3.5 mph 62 % 0.00 in
21:58 60.0 °F 47.4 °F 30.18 in SSE 1.5 mph 3.0 mph 63 % 0.00 in
22:03 59.9 °F 47.3 °F 30.18 in SW 0.9 mph 3.0 mph 63 % 0.00 in
22:08 59.8 °F 47.2 °F 30.18 in SW 1.1 mph 2.3 mph 63 % 0.00 in
22:13 59.7 °F 47.5 °F 30.18 in SW 1.6 mph 3.5 mph 64 % 0.00 in
22:18 59.5 °F 47.3 °F 30.18 in SW 0.8 mph 2.3 mph 64 % 0.00 in
22:23 59.3 °F 47.1 °F 30.18 in WSW 1.8 mph 4.6 mph 64 % 0.00 in
22:28 59.2 °F 47.0 °F 30.18 in WSW 2.1 mph 3.5 mph 64 % 0.00 in
22:33 59.0 °F 46.8 °F 30.18 in SW 1.0 mph 3.5 mph 64 % 0.00 in
22:38 58.9 °F 46.7 °F 30.18 in SW 2.0 mph 4.6 mph 64 % 0.00 in
22:43 58.8 °F 46.6 °F 30.18 in WSW 1.1 mph 2.0 mph 64 % 0.00 in
22:49 58.7 °F 47.0 °F 30.18 in WSW 0.6 mph 2.3 mph 65 % 0.00 in
22:54 58.6 °F 46.5 °F 30.18 in WSW 2.5 mph 5.8 mph 64 % 0.00 in
22:59 58.6 °F 46.9 °F 30.18 in Calm     65 % 0.00 in
23:09 58.5 °F 46.8 °F 30.18 in Calm     65 % 0.00 in
23:14 58.4 °F 47.1 °F 30.18 in Calm     66 % 0.00 in
23:19 58.2 °F 46.5 °F 30.18 in Calm     65 % 0.00 in
23:24 58.1 °F 46.8 °F 30.18 in Calm     66 % 0.00 in
23:29 57.8 °F 46.5 °F 30.18 in Calm     66 % 0.00 in
23:34 57.7 °F 46.8 °F 30.18 in Calm     67 % 0.00 in
23:40 57.6 °F 46.7 °F 30.19 in Calm     67 % 0.00 in
23:45 57.3 °F 46.8 °F 30.18 in Calm   1.2 mph 68 % 0.00 in
23:50 57.2 °F 47.1 °F 30.18 in Calm   2.3 mph 69 % 0.00 in
23:55 57.0 °F 46.9 °F 30.18 in Calm     69 % 0.00 in
Crab Meadow Weather
Compliments of Weather Underground - 2.75 mb

Script developed by  Jim McMurry - jmcmurry@mwt.net Adapted for the template by  Wim van der Kuil - Leuven-Template.eu

Weather Terms: Winter Storm Warning - Hazardous winter weather conditions that pose a threat to life and/or property are occurring, imminent or likely. The generic term, winter storm warning, is used for a combination of two or more of the following winter weather events; heavy snow, freezing rain, sleet and strong winds.